Location: Emporia
(38.4040°N, 96.1810°W)
Time: 22:33:11
(UTC-05:00)

Amateur Radio Satellites - All Passes

Search period start: 22 August 2014 22:03
Search period end: 23 August 2014 22:03
Location: Emporia, 38.4040°N, 96.1810°W

Satellite Date Start Highest point End Downlink Frequencies (MHz)
Time Altitude Azimuth
RS-15 22 Aug 22:04:50 22:08:42 12° 264° (W) 22:12:38 29.354 - 29.394 USB, Beacon 29.352 USB
AO-40 22 Aug 22:11:21 02:16:35 39° 188° (S) 07:45:24 Beacon 2401.320
ISS 22 Aug 22:32:34 22:34:18 14° 231° (SW) 22:36:01 145.800 FM
HO-68 22 Aug 22:37:22 22:43:48 36° 262° (W) 22:50:16 435.675 MHz FM
UKube-1 22 Aug 22:41:27 22:45:23 33° 262° (W) 22:49:20 145.840 MHz, 145.915 MHz
Oscar 11 22 Aug 22:56:47 23:00:50 39° 262° (W) 23:04:55 145.825 FM, Beacon 2401.500 USB
FUNcube-1 22 Aug 22:58:04 23:02:11 76° 76° (ENE) 23:06:23 145.950 - 145.970 MHz USB
Saudisat 1A 23 Aug 00:37:29 00:41:03 25° 112° (ESE) 00:44:38 436.775 MHz
MaSat-1 23 Aug 01:06:20 01:10:57 44° 60° (ENE) 01:15:01 437.345 MHz
KITSAT 1 23 Aug 01:28:33 01:36:27 61° 113° (ESE) 01:44:23 435.175 FM
Oscar 19 23 Aug 01:59:08 02:02:48 19° 93° (E) 02:06:26 437.125 CW, 437.150 USB
Oscar 10/S400 23 Aug 02:00:04 22:02:41 20° 94° (E) 04:59:57 145.825 - 145.975 CW/USB, Beacon 145.810 USB
ITAMSAT 1 23 Aug 02:15:02 02:15:07 10° 89° (E) 02:15:11 435.822 SSB
Saudisat 1A 23 Aug 02:16:30 02:20:28 32° 308° (NW) 02:24:28 436.775 MHz
Uribyol 2 23 Aug 02:24:39 02:27:33 15° 92° (E) 02:30:27 436.500 FM
Oscar 16 23 Aug 02:31:30 02:36:25 41° 99° (E) 02:41:18 437.025 USB, Beacon 2401.1428
AO-27 23 Aug 02:38:25 02:42:09 20° 94° (E) 02:45:53 436.795 MHz FM
MaSat-1 23 Aug 02:44:38 02:47:30 17° 260° (W) 02:50:10 437.345 MHz
JAS-1B 23 Aug 03:04:40 03:10:57 32° 93° (E) 03:16:25 435.800 - 435.900 CW/SSB
TMSAT-1 23 Aug 03:15:38 03:18:19 14° 91° (E) 03:21:00 436.925 FM
PCSat 23 Aug 03:15:44 03:18:52 15° 45° (NE) 03:21:59 145.825 MHz
KITSAT 1 23 Aug 03:25:12 03:32:17 33° 313° (NW) 03:39:25 435.175 FM
AO-Echo 23 Aug 03:33:46 03:38:30 78° 103° (ESE) 03:43:10 ?
Oscar 19 23 Aug 03:37:23 03:42:22 47° 289° (WNW) 03:47:19 437.125 CW, 437.150 USB
ITAMSAT 1 23 Aug 03:49:59 03:55:11 83° 284° (WNW) 04:00:22 435.822 SSB
Gurwin Techsat 1B 23 Aug 03:56:15 04:01:25 50° 100° (E) 04:06:32 435.225 FM
Uribyol 2 23 Aug 04:02:18 04:07:23 60° 287° (WNW) 04:12:29 436.500 FM
Oscar 16 23 Aug 04:11:29 04:15:29 23° 294° (WNW) 04:19:29 437.025 USB, Beacon 2401.1428
OPAL 23 Aug 04:12:16 04:16:45 34° 67° (ENE) 04:21:17 ?
AO-27 23 Aug 04:16:56 04:21:51 45° 289° (WNW) 04:26:46 436.795 MHz FM
Sapphire 23 Aug 04:27:13 04:32:29 49° 58° (ENE) 04:37:43 437.095 MHz 1200 baud AX-25 AFSK
TMSAT-1 23 Aug 04:53:25 04:58:40 66° 286° (WNW) 05:03:54 436.925 FM
JAS-1B 23 Aug 04:54:59 05:01:41 39° 295° (WNW) 05:07:27 435.800 - 435.900 CW/SSB
PCSat 23 Aug 04:57:33 05:03:00 86° 243° (WSW) 05:08:25 145.825 MHz
AO-7 23 Aug 05:09:43 05:17:24 41° 99° (E) 05:25:02 29.400 - 29.500 MHz
AO-Echo 23 Aug 05:15:39 05:16:35 11° 299° (WNW) 05:17:31 ?
Gurwin Techsat 1B 23 Aug 05:37:13 05:40:59 20° 296° (WNW) 05:44:44 435.225 FM
OPAL 23 Aug 05:51:29 05:55:38 26° 263° (W) 05:59:51 ?
Uosat F 23 Aug 05:55:02 06:00:03 84° 285° (WNW) 06:05:03 435.120 FM
Sapphire 23 Aug 06:11:31 06:15:31 21° 254° (WSW) 06:19:31 437.095 MHz 1200 baud AX-25 AFSK
Hamsat 23 Aug 06:12:10 06:13:58 12° 91° (E) 06:15:45 145.90 MHz
SO-50 23 Aug 06:15:03 06:19:26 63° 118° (ESE) 06:23:56 436.795 FM
AO-7 23 Aug 07:02:29 07:10:09 44° 297° (WNW) 07:17:48 29.400 - 29.500 MHz
STRAND 1 23 Aug 07:20:19 07:25:25 80° 75° (ENE) 07:30:33 ?
UOSAT-12 23 Aug 07:22:22 07:25:58 23° 111° (ESE) 07:29:38 437.025 FM, 437.400 FM
JAS-2 23 Aug 07:39:45 07:44:57 89° 101° (E) 07:50:21 435.800 - 435.900 CW/SSB, 435.910 FM
Hamsat 23 Aug 07:45:58 07:50:14 53° 286° (WNW) 07:54:27 145.90 MHz
SO-50 23 Aug 07:57:35 08:00:26 16° 316° (NW) 08:03:20 436.795 FM
RS-15 23 Aug 08:00:48 08:08:22 21° 101° (E) 08:15:47 29.354 - 29.394 USB, Beacon 29.352 USB
SO-67 23 Aug 08:06:35 08:09:45 32° 97° (E) 08:12:53 435.3500 MHz FM
UOSAT-12 23 Aug 09:01:36 09:05:53 38° 308° (NW) 09:10:16 437.025 FM, 437.400 FM
STRAND 1 23 Aug 09:04:21 09:05:10 10° 270° (W) 09:05:58 ?
Saudisat 1A 23 Aug 09:05:44 09:08:29 16° 44° (NE) 09:11:14 436.775 MHz
KITSAT 1 23 Aug 09:23:53 09:30:19 25° 42° (NE) 09:36:42 435.175 FM
SO-67 23 Aug 09:40:56 09:42:29 13° 292° (WNW) 09:44:02 435.3500 MHz FM
HO-68 23 Aug 10:05:48 10:12:41 49° 100° (E) 10:19:32 435.675 MHz FM
RS-15 23 Aug 10:08:05 10:19:14 87° 300° (WNW) 10:30:13 29.354 - 29.394 USB, Beacon 29.352 USB
UKube-1 23 Aug 10:30:49 10:34:58 43° 100° (E) 10:39:06 145.840 MHz, 145.915 MHz
Saudisat 1A 23 Aug 10:44:06 10:48:28 61° 242° (WSW) 10:52:47 436.775 MHz
Oscar 11 23 Aug 10:45:43 10:49:51 40° 98° (E) 10:53:57 145.825 FM, Beacon 2401.500 USB
FUNcube-1 23 Aug 10:49:29 10:52:26 17° 93° (E) 10:55:24 145.950 - 145.970 MHz USB
KITSAT 1 23 Aug 11:18:32 11:26:38 82° 243° (WSW) 11:34:41 435.175 FM
HO-68 23 Aug 11:54:00 12:00:05 31° 297° (WNW) 12:06:09 435.675 MHz FM
UKube-1 23 Aug 12:08:11 12:10:48 16° 295° (WNW) 12:13:25 145.840 MHz, 145.915 MHz
Oscar 11 23 Aug 12:22:51 12:25:42 17° 294° (WNW) 12:28:33 145.825 FM, Beacon 2401.500 USB
RS-15 23 Aug 12:24:18 12:33:17 28° 326° (NW) 12:42:17 29.354 - 29.394 USB, Beacon 29.352 USB
FUNcube-1 23 Aug 12:24:47 12:28:57 40° 288° (WNW) 12:33:11 145.950 - 145.970 MHz USB
Oscar 19 23 Aug 13:14:36 13:18:42 25° 66° (ENE) 13:22:49 437.125 CW, 437.150 USB
KITSAT 1 23 Aug 13:16:56 13:20:46 14° 260° (W) 13:24:36 435.175 FM
ITAMSAT 1 23 Aug 13:29:53 13:32:49 15° 62° (ENE) 13:35:44 435.822 SSB
ISS 23 Aug 13:36:03 13:39:12 42° 136° (SE) 13:42:21 145.800 FM
Uribyol 2 23 Aug 13:41:00 13:44:45 21° 65° (ENE) 13:48:31 436.500 FM
JAS-1B 23 Aug 13:44:34 13:53:04 35° 63° (ENE) 14:01:05 435.800 - 435.900 CW/SSB
Oscar 16 23 Aug 13:46:58 13:51:56 52° 72° (ENE) 13:56:57 437.025 USB, Beacon 2401.1428
AO-27 23 Aug 13:55:05 13:59:23 27° 67° (ENE) 14:03:41 436.795 MHz FM
TMSAT-1 23 Aug 14:34:41 14:38:28 20° 65° (ENE) 14:42:16 436.925 FM
AO-Echo 23 Aug 14:44:46 14:49:57 86° 76° (ENE) 14:55:00 ?
RS-15 23 Aug 14:45:03 14:51:07 16° 2° (N) 14:57:14 29.354 - 29.394 USB, Beacon 29.352 USB
SO-50 23 Aug 14:48:02 14:52:31 39° 53° (NE) 14:57:03 436.795 FM
Oscar 19 23 Aug 14:53:04 14:57:48 38° 262° (W) 15:02:36 437.125 CW, 437.150 USB
MaSat-1 23 Aug 14:53:33 14:57:27 27° 104° (ESE) 15:01:39 437.345 MHz
ITAMSAT 1 23 Aug 15:06:37 15:11:44 64° 258° (WSW) 15:16:54 435.822 SSB
ISS 23 Aug 15:13:18 15:16:02 23° 332° (NNW) 15:18:47 145.800 FM
Gurwin Techsat 1B 23 Aug 15:15:49 15:21:04 68° 74° (ENE) 15:26:21 435.225 FM
Uribyol 2 23 Aug 15:18:58 15:23:53 45° 261° (W) 15:28:50 436.500 FM
Oscar 16 23 Aug 15:28:16 15:31:34 17° 268° (W) 15:34:54 437.025 USB, Beacon 2401.1428
Uosat F 23 Aug 15:31:20 15:33:38 13° 61° (ENE) 15:35:55 435.120 FM
JAS-1B 23 Aug 15:33:10 15:42:57 64° 259° (W) 15:52:20 435.800 - 435.900 CW/SSB
AO-27 23 Aug 15:34:03 15:38:44 34° 263° (W) 15:43:27 436.795 MHz FM
UOSAT-12 23 Aug 15:53:16 15:56:21 17° 44° (NE) 15:59:25 437.025 FM, 437.400 FM
AO-7 23 Aug 16:06:52 16:14:46 49° 65° (ENE) 16:22:39 29.400 - 29.500 MHz
TMSAT-1 23 Aug 16:12:54 16:18:00 49° 261° (W) 16:23:08 436.925 FM
PANSAT 23 Aug 16:17:47 16:19:44 14° 167° (SSE) 16:21:40 not established
SO-50 23 Aug 16:29:03 16:32:53 24° 249° (WSW) 16:36:43 436.795 FM
MaSat-1 23 Aug 16:30:01 16:34:23 34° 302° (WNW) 16:39:04 437.345 MHz
Gurwin Techsat 1B 23 Aug 16:58:56 17:01:30 14° 269° (W) 17:04:04 435.225 FM
RS-15 23 Aug 16:59:19 17:08:44 31° 37° (NE) 17:18:20 29.354 - 29.394 USB, Beacon 29.352 USB
Uosat F 23 Aug 17:06:47 17:11:47 72° 257° (WSW) 17:16:48 435.120 FM
JAS-1B 23 Aug 17:31:33 17:34:46 12° 275° (W) 17:37:57 435.800 - 435.900 CW/SSB
UOSAT-12 23 Aug 17:32:16 17:36:58 66° 242° (WSW) 17:41:34 437.025 FM, 437.400 FM
JAS-2 23 Aug 17:50:13 17:56:01 34° 69° (ENE) 18:01:15 435.800 - 435.900 CW/SSB, 435.910 FM
PANSAT 23 Aug 17:56:33 17:59:17 19° 180° (S) 18:02:00 not established
PCSat 23 Aug 17:57:19 18:00:12 15° 103° (ESE) 18:03:06 145.825 MHz
AO-7 23 Aug 18:00:11 18:07:39 36° 262° (W) 18:15:10 29.400 - 29.500 MHz
OPAL 23 Aug 18:01:36 18:06:51 90° 288° (WNW) 18:12:04 ?
ISS 23 Aug 18:30:57 18:31:46 11° 13° (NNE) 18:32:35 145.800 FM
Hamsat 23 Aug 18:37:24 18:41:40 89° 76° (ENE) 18:46:00 145.90 MHz
Sapphire 23 Aug 19:07:19 19:12:37 62° 114° (ESE) 19:17:58 437.095 MHz 1200 baud AX-25 AFSK
RS-15 23 Aug 19:11:22 19:22:31 86° 241° (WSW) 19:34:07 29.354 - 29.394 USB, Beacon 29.352 USB
STRAND 1 23 Aug 19:32:55 19:37:22 30° 97° (E) 19:41:48 ?
JAS-2 23 Aug 19:34:54 19:41:00 36° 262° (W) 19:46:30 435.800 - 435.900 CW/SSB, 435.910 FM
PANSAT 23 Aug 19:36:50 19:38:49 14° 193° (SSW) 19:40:49 not established
PCSat 23 Aug 19:37:36 19:42:58 68° 299° (WNW) 19:48:23 145.825 MHz
OPAL 23 Aug 19:43:14 19:44:57 12° 302° (WNW) 19:46:39 ?
ISS 23 Aug 20:06:13 20:09:18 34° 32° (NNE) 20:12:22 145.800 FM
Oscar 10/S400 23 Aug 20:09:27 20:28:03 55° 157° (SSE) 21:29:02 145.825 - 145.975 CW/USB, Beacon 145.810 USB
SO-67 23 Aug 20:10:45 20:14:04 44° 261° (W) 20:17:25 435.3500 MHz FM
HO-68 23 Aug 20:33:16 20:39:23 32° 63° (ENE) 20:45:30 435.675 MHz FM
Sapphire 23 Aug 20:52:33 20:56:28 20° 312° (NW) 21:00:25 437.095 MHz 1200 baud AX-25 AFSK
STRAND 1 23 Aug 21:12:05 21:16:28 30° 292° (WNW) 21:20:50 ?
UKube-1 23 Aug 21:25:04 21:28:55 32° 70° (ENE) 21:32:48 145.840 MHz, 145.915 MHz
PCSat 23 Aug 21:25:41 21:27:25 11° 319° (NW) 21:29:10 145.825 MHz
RS-15 23 Aug 21:26:15 21:33:17 19° 260° (W) 21:40:31 29.354 - 29.394 USB, Beacon 29.352 USB
Oscar 11 23 Aug 21:39:40 21:43:17 27° 69° (ENE) 21:46:55 145.825 FM, Beacon 2401.500 USB
ISS 23 Aug 21:43:09 21:45:55 24° 228° (SW) 21:48:40 145.800 FM
FUNcube-1 23 Aug 21:46:45 21:47:55 11° 64° (ENE) 21:49:05 145.950 - 145.970 MHz USB
